This is the latest recevied weather packets stored in our database for station/object VE7THZ. If no packets are shown the sender has not sent any weather packets the latest 10 day(s).
| Time | Temp. | Humidity | Pressure | Rain* | Wind** | Luminosity | Snow |
|---|---|---|---|---|---|---|---|
| 1776978897 | 14.44° C | 19% | 1016.8 hPa | 0 mm | - | - | - |
| 1776978265 | 13.33° C | 17% | 1016.9 hPa | 0 mm | - | - | - |
| 1776977649 | 14.44° C | 20% | 1017 hPa | 0 mm | - | - | - |
| 1776977074 | 14.44° C | 20% | 1016.7 hPa | 0 mm | - | - | - |
| 1776976490 | 15° C | 19% | 1017 hPa | 0 mm | - | - | - |
| 1776975876 | 14.44° C | 22% | 1017 hPa | 0 mm | - | - | - |
| 1776975292 | 13.33° C | 17% | 1016.8 hPa | 0 mm | - | - | - |
| 1776974677 | 13.89° C | 19% | 1016.9 hPa | 0 mm | - | - | - |
| 1776974065 | 15° C | 20% | 1017 hPa | 0 mm | - | - | - |
| 1776973452 | 13.89° C | 17% | 1017.2 hPa | 0 mm | - | - | - |
| 1776972824 | 13.89° C | 18% | 1017.3 hPa | 0 mm | - | - | - |
| 1776972233 | 14.44° C | 16% | 1017.3 hPa | 0 mm | - | - | - |
| 1776971656 | 15° C | 18% | 1017.3 hPa | 0 mm | - | - | - |
| 1776971040 | 15° C | 18% | 1017.4 hPa | 0 mm | - | - | - |
| 1776970421 | 14.44° C | 20% | 1017.7 hPa | 0 mm | - | - | - |
| 1776969794 | 13.89° C | 18% | 1017.7 hPa | 0 mm | - | - | - |
| 1776969206 | 13.33° C | 16% | 1017.6 hPa | 0 mm | - | - | - |
| 1776968589 | 13.33° C | 18% | 1017.6 hPa | 0 mm | - | - | - |
| 1776968005 | 13.89° C | 19% | 1017.9 hPa | 0 mm | - | - | - |
| 1776967383 | 13.89° C | 20% | 1017.7 hPa | 0 mm | - | - | - |
| 1776966756 | 13.33° C | 21% | 1017.8 hPa | 0 mm | - | - | - |
| 1776966150 | 13.89° C | 19% | 1017.8 hPa | 0 mm | - | - | - |
| 1776965553 | 13.33° C | 19% | 1017.9 hPa | 0 mm | - | - | - |
| 1776964926 | 12.78° C | 20% | 1018 hPa | 0 mm | - | - | - |
| 1776964305 | 12.78° C | 18% | 1018 hPa | 0 mm | - | - | - |
* Rain latest hour (hover to see other rain measurements)
** Current wind speed in m/s (hover to see current wind gust speed)